Weather History for Kalamata, Greece

Change the Weather History Date:

Sunday, September 30, 2012

  Actual Average Record
Temperature  
Mean Temperature 71 °F -  
Max Temperature 87 °F 76 °F 87 °F (2012)
Min Temperature 55 °F 56 °F 51 °F (2008)
Cooling Degree Days 6    
Growing Degree Days 21 (Base 50)    
Moisture  
Dew Point 56 °F    
Average Humidity 54    
Maximum Humidity 83    
Minimum Humidity 27    
Precipitation  
Precipitation 0.00 in 0.13 in - ()
Sea Level Pressure  
Sea Level Pressure 30.02 in    
Wind  
Wind Speed 2 mph ()    
Max Wind Speed 10 mph    
Max Gust Speed -    
Averages and records for this station are not official NWS values.
T = Trace of Precipitation, MM = Missing Value Source: Averaged Metar Reports

Daily Weather History Graph

Daily Weather History Graph

Search for Another Location

Airport:

Trip Planner

Search our weather history database for the weather conditions in past years. The results will help you decide how hot, cold, wet, or windy it might be!

Date:

Astronomy

Sep. 30, 2012 Rise Set
Actual Time 7:26 AM EEST 7:16 PM EEST
Civil Twilight 7:00 AM EEST 7:42 PM EEST
Nautical Twilight 6:30 AM EEST 8:12 PM EEST
Astronomical Twilight 6:00 AM EEST 8:42 PM EEST
Moon 7:12 PM EEST (9/30) 7:37 AM EEST (9/30)
Length of Visible Light 12h 41m
Length of Day
11h 49m
Full, 100% of the Moon is Illuminated
Sep 30
Full
Oct 8
Last Quarter
Oct 15
New
Oct 22
First Quarter
Oct 29
Full

Hourly Weather History & Observations

Time (EEST) Temp. Heat Index Dew Point Humidity Pressure Visibility Wind Dir Wind Speed Gust Speed Precip Events Conditions
2:50 AM 64.4 °F - 53.6 °F 68% 30.01 in - Calm Calm - N/A   Clear
5:50 AM 62.6 °F - 51.8 °F 68% 30.01 in - Calm Calm - N/A   Clear
6:50 AM 57.2 °F - 51.8 °F 82% 30.01 in - Calm Calm - N/A   Clear
7:20 AM 57.2 °F - 51.8 °F 82% 30.01 in - Calm Calm - N/A   Clear
7:50 AM 55.4 °F - 50.0 °F 82% 30.01 in - Calm Calm - N/A   Clear
8:20 AM 59.0 °F - 51.8 °F 77% 30.01 in - Calm Calm - N/A   Clear
8:50 AM 64.4 °F - 53.6 °F 68% 30.04 in - Calm Calm - N/A   Clear
9:20 AM 69.8 °F - 55.4 °F 60% 30.04 in - Calm Calm - N/A   Clear
9:50 AM 75.2 °F - 53.6 °F 47% 30.04 in - Calm Calm - N/A   Clear
10:20 AM 80.6 °F 80.3 °F 53.6 °F 39% 30.04 in - Calm Calm - N/A   Clear
10:50 AM 84.2 °F - 50.0 °F 30% 30.04 in - Calm Calm - N/A   Clear
11:20 AM 84.2 °F - 48.2 °F 29% 30.04 in - Calm Calm - N/A   Clear
11:50 AM 86.0 °F 84.2 °F 53.6 °F 33% 30.04 in - Calm Calm - N/A   Clear
12:20 PM 86.0 °F - 51.8 °F 31% 30.04 in - South 5.8 mph - N/A   Clear
12:50 PM 87.8 °F - 50.0 °F 27% 30.04 in - South 5.8 mph - N/A   Clear
1:20 PM 87.8 °F - 50.0 °F 27% 30.01 in - South 5.8 mph - N/A   Clear
1:50 PM 87.8 °F 85.7 °F 53.6 °F 31% 30.01 in - South 6.9 mph - N/A   Clear
2:20 PM 87.8 °F - 50.0 °F 27% 30.01 in - South 5.8 mph - N/A   Clear
2:50 PM 86.0 °F 86.6 °F 62.6 °F 45% 30.01 in - South 6.9 mph - N/A   Clear
3:20 PM 86.0 °F 85.4 °F 59.0 °F 40% 30.01 in - South 6.9 mph - N/A   Clear
3:50 PM 86.0 °F 86.1 °F 60.8 °F 43% 30.01 in - South 8.1 mph - N/A   Clear
4:20 PM 86.0 °F 86.6 °F 62.6 °F 45% 30.01 in - South 10.4 mph - N/A   Clear
5:20 PM 84.2 °F 85.0 °F 62.6 °F 48% 29.98 in - South 8.1 mph - N/A   Clear
5:50 PM 84.2 °F 85.0 °F 62.6 °F 48% 30.01 in - South 5.8 mph - N/A   Clear
6:20 PM 82.4 °F 83.4 °F 62.6 °F 51% 30.01 in - Calm Calm - N/A   Clear
6:50 PM 80.6 °F 82.3 °F 64.4 °F 58% 30.01 in - Calm Calm - N/A   Clear
7:20 PM 75.2 °F - 64.4 °F 69% 30.01 in - Calm Calm - N/A   Clear
7:50 PM 71.6 °F - 64.4 °F 78% 30.01 in - Calm Calm - N/A   Clear
8:20 PM 71.6 °F - 64.4 °F 78% 30.01 in - Calm Calm - N/A   Clear
8:50 PM 69.8 °F - 64.4 °F 83% 30.01 in - Calm Calm - N/A   Clear
11:50 PM 64.4 °F - 57.2 °F 77% 30.04 in - Calm Calm - N/A   Clear